Weather History for Merrill, WI

Change the Weather History Date:

Friday, October 7, 2011

  Actual Average Record
Temperature  
Mean Temperature 65 °F -  
Max Temperature 78 °F 57 °F 84 °F (2007)
Min Temperature 52 °F 35 °F 15 °F (2001)
Growing Degree Days 15 (Base 50)    
Moisture  
Dew Point 50 °F    
Average Humidity 64    
Maximum Humidity 89    
Minimum Humidity 31    
Precipitation  
Precipitation 0.00 in - - ()
Sea Level Pressure  
Sea Level Pressure 30.16 in    
Wind  
Wind Speed 4 mph (South)    
Max Wind Speed 18 mph    
Max Gust Speed 28 mph    
Visibility 10 miles    
Events      
Averages and records for this station are not official NWS values.
T = Trace of Precipitation, MM = Missing Value Source: NWS Daily Summary

Daily Weather History Graph

Daily Weather History Graph

Search for Another Location

Airport:

Trip Planner

Search our weather history database for the weather conditions in past years. The results will help you decide how hot, cold, wet, or windy it might be!

Date:

Astronomy

Oct. 07, 2011 Rise Set
Actual Time 7:04 AM CDT 6:28 PM CDT
Civil Twilight 6:34 AM CDT 6:57 PM CDT
Nautical Twilight 6:00 AM CDT 7:31 PM CDT
Astronomical Twilight 5:26 AM CDT 8:06 PM CDT
Moon 4:20 PM CDT (10/7) 2:42 AM CDT (10/7)
Length of Visible Light 12h 23m
Length of Day
11h 24m
Waxing Gibbous, 83% of the Moon is Illuminated
Oct 7
Waxing Gibbous
Oct 11
Full
Oct 19
Last Quarter
Oct 26
New
Nov 2
First Quarter

Hourly Weather History & Observations

Time (CDT) Temp. Dew Point Humidity Pressure Visibility Wind Dir Wind Speed Gust Speed Precip Events Conditions
12:15 AM 57.6 °F 51.3 °F 79% 30.19 in 10.0 mi Calm Calm - N/A   Clear
12:35 AM 56.8 °F 50.9 °F 80% 30.19 in 10.0 mi Calm Calm - N/A   Clear
12:55 AM 56.3 °F 50.7 °F 82% 30.19 in 10.0 mi Calm Calm - N/A   Clear
1:15 AM 56.5 °F 50.5 °F 80% 30.19 in 10.0 mi Calm Calm - N/A   Clear
1:35 AM 55.8 °F 50.2 °F 82% 30.19 in 10.0 mi Calm Calm - N/A   Clear
1:55 AM 55.0 °F 49.8 °F 83% 30.19 in 10.0 mi Calm Calm - N/A   Clear
2:15 AM 55.0 °F 50.2 °F 84% 30.19 in 10.0 mi Calm Calm - N/A   Clear
2:35 AM 53.6 °F 49.3 °F 85% 30.19 in 10.0 mi Calm Calm - N/A   Clear
2:55 AM 54.1 °F 49.6 °F 85% 30.19 in 10.0 mi Calm Calm - N/A   Clear
3:15 AM 54.9 °F 50.0 °F 84% 30.19 in 10.0 mi Calm Calm - N/A   Clear
3:35 AM 55.0 °F 49.8 °F 83% 30.19 in 10.0 mi SE 3.5 mph - N/A   Clear
3:55 AM 55.0 °F 50.5 °F 85% 30.19 in 10.0 mi Calm Calm - N/A   Clear
4:15 AM 54.1 °F 50.0 °F 86% 30.19 in 10.0 mi Calm Calm - N/A   Clear
4:35 AM 52.7 °F 49.5 °F 89% 30.20 in 10.0 mi Calm Calm - N/A   Clear
4:55 AM 52.7 °F 49.5 °F 89% 30.20 in 10.0 mi Calm Calm - N/A   Clear
5:15 AM 54.1 °F 50.5 °F 88% 30.20 in 10.0 mi Calm Calm - N/A   Clear
5:35 AM 53.6 °F 50.0 °F 88% 30.20 in 10.0 mi SSE 3.5 mph - N/A   Clear
5:55 AM 55.0 °F 51.3 °F 87% 30.20 in 10.0 mi SSE 3.5 mph - N/A   Clear
6:15 AM 55.0 °F 51.3 °F 87% 30.20 in 10.0 mi SSE 3.5 mph - N/A   Clear
6:35 AM 55.0 °F 51.3 °F 87% 30.21 in 10.0 mi SSE 3.5 mph - N/A   Clear
6:55 AM 55.0 °F 51.1 °F 86% 30.20 in 10.0 mi SSE 3.5 mph - N/A   Clear
7:15 AM 55.0 °F 51.3 °F 87% 30.20 in 10.0 mi Calm Calm - N/A   Clear
7:35 AM 55.0 °F 51.3 °F 87% 30.20 in 10.0 mi Calm Calm - N/A   Clear
7:55 AM 55.0 °F 50.7 °F 85% 30.20 in 10.0 mi SSE 3.5 mph - N/A   Clear
8:15 AM 56.5 °F 51.4 °F 83% 30.20 in 10.0 mi SSE 4.6 mph - N/A   Clear
8:35 AM 58.1 °F 52.0 °F 80% 30.20 in 10.0 mi SSE 3.5 mph - N/A   Clear
8:55 AM 60.1 °F 52.5 °F 76% 30.20 in 10.0 mi SSE 4.6 mph - N/A   Clear
9:15 AM 61.3 °F 52.7 °F 73% 30.20 in 10.0 mi Calm Calm - N/A   Clear
9:35 AM 64.4 °F 52.9 °F 66% 30.20 in 10.0 mi South 4.6 mph - N/A   Clear
9:55 AM 68.0 °F 54.1 °F 61% 30.19 in 10.0 mi SSW 6.9 mph 17.3 mph N/A   Clear
10:15 AM 70.2 °F 54.1 °F 57% 30.18 in 10.0 mi SSW 11.5 mph 18.4 mph N/A   Clear
10:35 AM 71.2 °F 53.4 °F 53% 30.18 in 10.0 mi South 12.7 mph 20.7 mph N/A   Clear
10:55 AM 72.1 °F 53.6 °F 52% 30.18 in 7.0 mi SSW 11.5 mph 21.9 mph N/A   Clear
11:15 AM 71.1 °F 53.1 °F 53% 30.18 in 10.0 mi South 10.4 mph 21.9 mph N/A   Clear
11:35 AM 72.7 °F 54.0 °F 52% 30.17 in 5.0 mi South 9.2 mph 18.4 mph N/A   Haze
12:15 PM 74.7 °F 54.1 °F 49% 30.15 in 10.0 mi SSW 12.7 mph 19.6 mph N/A   Clear
12:35 PM 75.2 °F 53.1 °F 46% 30.15 in 10.0 mi SSW 11.5 mph 26.5 mph N/A   Clear
12:55 PM 75.2 °F 53.6 °F 47% 30.14 in 10.0 mi South 13.8 mph 24.2 mph N/A   Clear
1:15 PM 75.2 °F 53.2 °F 46% 30.13 in 10.0 mi SSW 16.1 mph 25.3 mph N/A   Clear
1:35 PM 75.2 °F 52.9 °F 46% 30.13 in 10.0 mi SSW 10.4 mph 18.4 mph N/A   Clear
2:15 PM 77.4 °F 50.5 °F 39% 30.12 in 10.0 mi SSW 12.7 mph 24.2 mph N/A   Clear
2:35 PM 77.9 °F 48.4 °F 35% 30.11 in 10.0 mi SSW 15.0 mph 27.6 mph N/A   Clear
3:15 PM 77.9 °F 46.9 °F 33% 30.10 in 10.0 mi SSW 18.4 mph 23.0 mph N/A   Clear
3:35 PM 77.9 °F 46.6 °F 33% 30.10 in 7.0 mi SSW 11.5 mph 25.3 mph N/A   Clear
3:55 PM 77.4 °F 46.9 °F 34% 30.10 in 10.0 mi South 11.5 mph 18.4 mph N/A   Clear
4:15 PM 78.1 °F 45.7 °F 32% 30.09 in 10.0 mi South 16.1 mph 25.3 mph N/A   Clear
4:35 PM 78.1 °F 45.3 °F 31% 30.09 in 10.0 mi SSW 12.7 mph 27.6 mph N/A   Clear
4:55 PM 77.9 °F 46.0 °F 32% 30.08 in 10.0 mi South 11.5 mph 23.0 mph N/A   Clear
5:15 PM 77.9 °F 46.9 °F 33% 30.08 in 10.0 mi South 10.4 mph 18.4 mph N/A   Clear
5:35 PM 77.7 °F 46.4 °F 33% 30.07 in 10.0 mi South 10.4 mph 19.6 mph N/A   Clear
5:55 PM 75.7 °F 44.4 °F 33% 30.07 in 10.0 mi South 9.2 mph 19.6 mph N/A   Clear
6:15 PM 75.2 °F 45.7 °F 35% 30.06 in 10.0 mi South 9.2 mph 17.3 mph N/A   Clear
6:35 PM 75.2 °F 46.6 °F 36% 30.07 in 10.0 mi South 8.1 mph 16.1 mph N/A   Clear
6:55 PM 74.1 °F 46.6 °F 37% 30.07 in 10.0 mi South 8.1 mph - N/A   Clear
7:15 PM 72.5 °F 47.3 °F 41% 30.08 in 10.0 mi South 6.9 mph - N/A   Clear
7:35 PM 71.6 °F 47.3 °F 42% 30.09 in 10.0 mi South 8.1 mph - N/A   Clear
7:55 PM 70.7 °F 46.4 °F 42% 30.10 in 10.0 mi South 5.8 mph - N/A   Clear
8:15 PM 70.3 °F 45.7 °F 41% 30.09 in 10.0 mi South 5.8 mph - N/A   Clear
8:35 PM 70.2 °F 45.1 °F 41% 30.09 in 10.0 mi South 6.9 mph 16.1 mph N/A   Clear
8:55 PM 70.2 °F 44.6 °F 40% 30.10 in 10.0 mi South 10.4 mph 16.1 mph N/A   Clear
9:15 PM 70.3 °F 44.1 °F 39% 30.09 in 10.0 mi South 9.2 mph 20.7 mph N/A   Clear
9:35 PM 70.3 °F 43.7 °F 38% 30.09 in 10.0 mi South 9.2 mph 16.1 mph N/A   Clear
9:55 PM 70.2 °F 43.9 °F 39% 30.10 in 10.0 mi South 8.1 mph 19.6 mph N/A   Clear
10:15 PM 70.2 °F 45.1 °F 41% 30.10 in 10.0 mi South 9.2 mph 18.4 mph N/A   Clear
10:35 PM 70.2 °F 45.7 °F 41% 30.10 in 10.0 mi South 12.7 mph 18.4 mph N/A   Clear
10:55 PM 70.2 °F 46.9 °F 43% 30.10 in 10.0 mi SSW 11.5 mph 18.4 mph N/A   Clear
11:15 PM 70.2 °F 48.2 °F 46% 30.10 in 10.0 mi South 11.5 mph 18.4 mph N/A   Clear
11:35 PM 70.2 °F 48.6 °F 46% 30.10 in 10.0 mi SSW 11.5 mph 19.6 mph N/A   Clear
11:55 PM 70.2 °F 48.7 °F 46% 30.10 in 10.0 mi SSW 11.5 mph 16.1 mph N/A   Clear